FW3968 Weather Reports


time (UTC)temp
C
wind
direction
speed
KPH
gust
KPH
rain 1hr
cm
rain 24hr
cm
rain mn
cm
humidity
%
barometer
mb
20260507134020 11 292 0.0 3.2 0.00 0.00 0.00 74 1006.2
20260507133119 11 35 8.0 14.5 0.00 0.00 0.00 75 1006.3
20260507132122 10 16 4.8 11.3 0.00 0.00 0.00 76 1006.4
20260507131121 11 35 14.5 19.3 0.00 0.00 0.00 77 1006.4
20260507130121 10 329 6.4 9.7 0.00 0.00 0.00 78 1006.4
20260507125219 10 299 1.6 3.2 0.00 0.00 0.00 79 1006.4
20260507124222 10 330 6.4 9.7 0.00 0.00 0.00 79 1006.7
20260507123238 10 342 6.4 9.7 0.00 0.00 0.00 81 1006.6
20260507122223 10 336 6.4 9.7 0.00 0.00 0.00 82 1006.7
20260507120322 9 348 4.8 8.0 0.00 0.00 0.00 84 1006.9
20260507115320 8 343 4.8 4.8 0.00 0.00 0.00 86 1006.5
20260507114320 8 325 4.8 11.3 0.00 0.00 0.00 88 1006.9
20260507113320 8 346 4.8 8.0 0.00 0.00 0.00 89 1006.9
20260507112321 8 346 1.6 4.8 0.00 0.00 0.00 89 1006.8
20260507111321 8 345 3.2 6.4 0.00 0.00 0.00 90 1006.3
20260507110319 8 3 8.0 9.7 0.00 0.00 0.00 91 1006.3
20260507105321 8 327 4.8 9.7 0.00 0.00 0.00 93 1006.5
20260507104321 7 342 6.4 14.5 0.00 0.00 0.00 94 1006.1
20260507103420 7 313 0.0 3.2 0.00 0.00 0.00 95 1006.3
20260507102520 7 326 3.2 4.8 0.00 0.00 0.00 96 1006.0
20260507101520 7 360 1.6 1.6 0.00 0.00 0.00 96 1006.0
20260507100523 7 316 0.0 1.6 0.00 0.00 0.00 96 1006.2
20260507095522 7 337 0.0 1.6 0.00 0.00 0.00 96 1006.2
20260507093622 7 348 1.6 4.8 0.00 0.00 0.00 95 1006.0
20260507093520 7 337 1.6 3.2 0.00 0.00 0.00 96 1006.2
20260507092522 7 360 0.0 0.0 0.00 0.00 0.00 96 1006.3
20260507091619 7 360 0.0 3.2 0.00 0.00 0.00 96 1005.7
20260507090620 8 337 0.0 1.6 0.00 0.00 0.00 96 1005.6
20260507085620 8 351 3.2 4.8 0.00 0.00 0.00 96 1005.6
20260507084621 8 322 1.6 3.2 0.00 0.00 0.00 95 1005.6
20260507083719 8 328 4.8 6.4 0.00 0.00 0.00 97 1005.6
20260507082720 8 327 4.8 11.3 0.00 0.00 0.00 97 1005.7
20260507080720 8 348 3.2 6.4 0.00 0.00 0.00 98 1005.4
20260507075735 8 323 4.8 6.4 0.00 0.00 0.00 98 1005.8
20260507073722 9 15 1.6 4.8 0.00 0.00 0.00 97 1005.6
20260507072820 9 347 3.2 4.8 0.00 0.00 0.00 98 1005.4
20260507071822 9 346 4.8 6.4 0.00 0.00 0.00 98 1005.1
20260507070821 9 332 3.2 6.4 0.00 0.00 0.00 98 1005.1
20260507064919 10 359 4.8 6.4 0.00 0.00 0.00 98 1004.8
20260507063921 10 333 1.6 3.2 0.00 0.00 0.00 97 1004.8
20260507063020 10 360 4.8 6.4 0.00 0.00 0.00 98 1004.7
20260507062119 10 325 4.8 11.3 0.00 0.00 0.00 98 1004.6
20260507061120 10 347 1.6 3.2 0.00 0.00 0.00 98 1005.1
20260507060121 10 327 4.8 8.0 0.00 0.00 0.00 97 1005.3
20260507055121 10 316 4.8 11.3 0.00 0.00 0.00 98 1005.3
20260507052121 10 3 6.4 9.7 0.00 0.00 0.00 99 1004.4
20260507051119 11 342 6.4 14.5 0.00 0.00 0.00 99 1004.6
20260507050119 11 335 6.4 11.3 0.00 0.00 0.00 99 1004.8
20260507045119 11 338 6.4 9.7 0.00 0.00 0.00 99 1004.4
20260507044121 11 151 6.4 11.3 0.00 0.00 0.00 98 1004.3
20260507043121 11 196 3.2 6.4 0.00 0.00 0.00 99 1004.2
20260507041122 11 182 6.4 9.7 0.00 0.00 0.00 99 1004.2
20260507040119 11 5 8.0 12.9 0.00 0.00 0.00 98 1004.1
20260507035218 11 180 8.0 14.5 0.00 0.00 0.00 98 1004.2
20260507034317 11 196 8.0 12.9 0.00 0.00 0.00 98 1004.1
20260507033416 11 187 8.0 11.3 0.00 0.00 0.00 97 1004.0
20260507032434 12 195 6.4 8.0 0.00 0.00 0.00 98 1004.0
20260507031518 12 198 9.7 17.7 0.00 0.00 0.00 97 1004.0
20260507030516 12 193 8.0 11.3 0.00 0.00 0.00 98 1003.9
20260507025517 12 189 8.0 12.9 0.00 0.00 0.00 98 1004.1
20260507024517 12 186 8.0 14.5 0.00 0.00 0.00 98 1004.3
20260507023520 12 185 12.9 20.9 0.00 0.00 0.00 98 1004.5
20260507022518 12 181 9.7 16.1 0.00 0.00 0.00 98 1004.8
20260507020616 12 185 9.7 20.9 0.00 0.00 0.00 98 1005.2
20260507015618 12 182 11.3 17.7 0.00 0.00 0.00 97 1005.5
20260507014619 12 210 8.0 11.3 0.00 0.00 0.00 98 1005.6
20260507013617 12 200 9.7 17.7 0.00 0.00 0.00 97 1005.8
20260507012619 12 181 9.7 14.5 0.00 0.00 0.00 97 1005.9
20260507011717 12 181 9.7 19.3 0.00 0.00 0.00 97 1006.0
20260507010733 12 204 9.7 16.1 0.00 0.00 0.00 97 1006.2
20260507004817 12 187 9.7 16.1 0.00 0.00 0.00 97 1006.5
20260507003833 12 180 11.3 11.3 0.00 0.00 0.00 96 1006.6
20260507002835 12 196 11.3 16.1 0.00 0.00 0.00 96 1006.7
20260507001919 12 189 11.3 16.1 0.00 0.00 0.00 97 1006.7
20260507000919 12 171 14.5 27.4 0.00 0.00 0.00 98 1006.6
20260506235918 12 200 12.9 19.3 0.00 0.00 0.00 98 1007.0
20260506232917 12 202 12.9 20.9 0.00 0.00 0.00 97 1006.7
20260506231918 12 187 9.7 17.7 0.00 0.00 0.00 97 1006.8
20260506230918 12 184 4.8 8.0 0.00 0.00 0.00 97 1006.8
20260506225919 12 172 9.7 14.5 0.00 0.00 0.00 97 1007.2
20260506225017 12 185 9.7 20.9 0.00 0.00 0.00 97 1007.1
20260506224018 12 165 17.7 24.1 0.00 0.00 0.00 95 1007.5
20260506223016 12 196 8.0 11.3 0.00 0.00 0.00 96 1007.5
20260506221018 12 173 4.8 9.7 0.00 0.00 0.00 96 1007.7
20260506220017 12 189 8.0 16.1 0.00 0.00 0.00 94 1007.7
20260506215017 12 184 9.7 16.1 0.00 0.00 0.00 94 1007.5
20260506214017 12 200 9.7 19.3 0.00 0.00 0.00 93 1007.6
20260506212016 12 180 4.8 9.7 0.00 0.00 0.00 93 1007.8
20260506210119 12 175 6.4 11.3 0.00 0.00 0.00 91 1007.8
20260506205218 12 174 6.4 11.3 0.00 0.00 0.00 90 1008.0
20260506204218 12 204 4.8 8.0 0.00 0.00 0.00 88 1008.2
20260506203218 13 191 6.4 14.5 0.00 0.00 0.00 87 1008.2
20260506202217 13 193 6.4 14.5 0.00 0.00 0.00 87 1008.0
20260506201219 13 196 9.7 14.5 0.00 0.00 0.00 87 1008.1
20260506200218 13 198 1.6 3.2 0.00 0.00 0.00 85 1007.9
20260506195217 13 195 3.2 6.4 0.00 0.00 0.00 85 1008.1
20260506194317 13 175 6.4 8.0 0.00 0.00 0.00 83 1008.2
20260506192334 14 207 8.0 11.3 0.00 0.00 0.00 82 1008.5
20260506191318 14 207 12.9 22.5 0.00 0.00 0.00 81 1008.2
20260506180332 -17 0 0.0 0.0 0.00 0.00 0.00 100
20260506174419 -17 0 0.0 0.0 0.00 0.00 0.00 100
20260506173416 15 202 16.1 16.1 0.00 0.00 0.00 79 1009.4
20260506172416 15 180 4.8 12.9 0.00 0.00 0.00 81 1009.4
20260506170416 15 188 4.8 6.4 0.00 0.00 0.00 81 1009.6
20260506165418 15 187 4.8 8.0 0.00 0.00 0.00 81 1009.7
20260506164516 15 154 4.8 9.7 0.00 0.00 0.00 80 1009.8
20260506163518 15 192 6.4 14.5 0.00 0.00 0.00 79 1010.0
20260506162515 15 187 8.0 12.9 0.00 0.00 0.00 79 1010.0
20260506161516 15 204 9.7 12.9 0.00 0.00 0.00 79 1010.1
20260506160516 15 219 4.8 9.7 0.00 0.00 0.00 78 1010.1
20260506155517 15 196 9.7 17.7 0.00 0.00 0.00 78 1010.2
20260506153619 16 186 3.2 11.3 0.00 0.00 0.00 77 1009.6
20260506152716 16 193 3.2 9.7 0.00 0.00 0.00 75 1009.6
20260506151720 16 206 8.0 11.3 0.00 0.00 0.00 76 1009.7
20260506150717 16 181 3.2 6.4 0.00 0.00 0.00 75 1010.1
20260506145717 16 156 8.0 14.5 0.00 0.00 0.00 74 1010.3
20260506144720 16 159 1.6 4.8 0.00 0.00 0.00 75 1010.6
20260506142815 16 175 8.0 11.3 0.00 0.00 0.00 75 1010.6
20260506140917 15 174 6.4 11.3 0.00 0.00 0.00 76 1010.5
20260506135916 15 180 0.0 0.0 0.00 0.00 0.00 76 1010.5
20260506134917 15 113 1.6 3.2 0.00 0.00 0.00 76 1010.6